This demonstration page uses our WeatherBlox Daily Observations layout. Learn more.

Left ArrowRight Arrow

Hourly Observations for March 23, 2020

Temp ( °F °C ) Dew Point ( °F °C ) Humidity (%) Winds ( mph kmh ) Pressure ( in mb ) Visibility ( mi km ) Precip ( " mm )
12:31 am 00:31 Mostly Clear with Mist and Fog 36 2 34 1 93 93 S 6 9 30.11 1020 5 8 0.00 0.00
12:56 am 00:56 Clear with Mist and Fog 32 0 31 -0.6 96 96 SSE 7 11 30.07 1018 3 5 0.00 0.00
1:19 am 01:19 Partly Cloudy with Mist and Fog 32 0 30 -1 93 93 SSE 7 11 30.13 1020 5 8 0.00 0.00
1:27 am 01:27 Mostly Cloudy with Mist and Fog 32 0 32 0 100 100 SSE 5 7 30.13 1020 5 8 0.00 0.00
1:39 am 01:39 Cloudy with Mist and Fog 34 1 34 1 100 100 S 9 15 30.12 1020 2 3 0.00 0.00
1:43 am 01:43 Cloudy with Light Rain 36 2 36 2 100 100 S 10 17 30.10 1019 1 1 0.00 0.00
1:51 am 01:51 Cloudy with Light Rain 36 2 36 2 100 100 S 13 20 30.10 1019 1 1 0.00 0.00
1:56 am 01:56 Cloudy with Light Rain 36 2.2 35 1.7 97 97 S 9 15 30.06 1018 1 1 0.00 0.00
2:25 am 02:25 Cloudy with Light Rain 37 3 37 3 100 100 SSW 8 13 30.10 1019 0 0 0.00 0.00
2:56 am 02:56 Cloudy with Light Rain 37 2.8 36 2.2 96 96 SW 7 11 30.07 1018 1 1 0.00 0.00
3:03 am 03:03 Cloudy with Light Rain 37 3 36 2 93 93 SW 6 9 30.11 1020 0 0 0.00 0.00
3:13 am 03:13 Cloudy with Light Rain 37 3 36 2 93 93 SW 7 11 30.10 1019 1 1 0.00 0.00
3:56 am 03:56 Cloudy with Light Rain 36 2.2 36 2.2 100 100 S 7 11 30.05 1018 1 1 0.00 0.00
4:56 am 04:56 Cloudy with Light Rain 37 2.8 36 2.2 96 96 SSW 8 13 30.05 1018 1 1 0.00 0.00
5:13 am 05:13 Cloudy with Light Rain 36 2 36 2 100 100 SW 5 7 30.10 1019 0 0 0.00 0.00
5:56 am 05:56 Cloudy with Light Rain 35 1.7 34 1.1 96 96 NW 9 15 30.06 1018 1 1 0.00 0.00
6:18 am 06:18 Cloudy with Light Rain 34 1 34 1 100 100 Calm 30.14 1021 0 0 0.00 0.00
6:56 am 06:56 Cloudy with Fog 33 0.6 33 0.6 100 100 NW 3 6 30.09 1019 0 0 0.00 0.00
7:56 am 07:56 Cloudy with Light Rain 35 1.7 34 1.1 96 96 N 6 9 30.11 1020 0 0 0.00 0.00
8:56 am 08:56 Cloudy with Light Rain 35 1.7 34 1.1 96 96 N 7 11 30.12 1020 0 0 0.00 0.00
9:56 am 09:56 Cloudy with Fog 38 3.3 37 2.8 97 97 N 12 19 30.11 1020 0 0 0.00 0.00
10:04 am 10:04 Cloudy with Light Rain 37 3 37 3 100 100 N 12 19 30.13 1020 1 1 0.00 0.00
10:28 am 10:28 Cloudy with Mist and Fog 37 3 37 3 100 100 NNE 12 19 30.14 1021 1 1 0.00 0.00
10:40 am 10:40 Cloudy with Mist and Fog 39 4 37 3 93 93 N 10 17 30.14 1021 1 2 0.00 0.00
10:56 am 10:56 Cloudy with Mist and Fog 39 3.9 39 3.9 100 100 NNE 8 13 30.12 1020 2 3 0.00 0.00
11:11 am 11:11 Cloudy with Mist and Fog 39 4 39 4 100 100 N 7 11 30.14 1021 2 3 0.00 0.00
11:22 am 11:22 Cloudy with Mist and Fog 39 4 39 4 100 100 NE 8 13 30.15 1021 4 6 0.00 0.00
11:56 am 11:56 Cloudy 41 5 40 4.4 96 96 N 8 13 30.12 1020 7 11 0.00 0.00
12:19 pm 12:19 Cloudy 39 4 37 3 93 93 Calm 30.15 1021 10 16 0.00 0.00
12:56 pm 12:56 Cloudy 41 5 39 3.9 93 93 E 7 11 30.11 1020 10 16 0.00 0.00
1:56 pm 13:56 Cloudy 42 5.6 39 3.9 89 89 ESE 6 9 30.08 1019 10 16 0.00 0.00
2:28 pm 14:28 Cloudy 43 6 39 4 87 87 Calm 30.07 1018 10 16 0.00 0.00
2:56 pm 14:56 Cloudy 43 6.1 40 4.4 89 89 VRB 3 6 30.04 1017 10 16 0.00 0.00
3:39 pm 15:39 Cloudy 45 7 39 4 81 81 ENE 7 11 30.01 1016 10 16 0.00 0.00
3:56 pm 15:56 Cloudy 45 7.2 39 3.9 80 80 Calm 30.01 1016 10 16 0.00 0.00
4:39 pm 16:39 Mostly Sunny 48 9 39 4 71 71 ESE 8 13 29.98 1015 10 16 0.00 0.00
4:56 pm 16:56 Sunny 49 9.4 41 5 74 74 ESE 9 15 29.98 1015 10 16 0.00 0.00
5:56 pm 17:56 Mostly Sunny 53 11.7 41 5 64 64 ESE 9 15 29.95 1014 10 16 0.00 0.00
6:56 pm 18:56 Partly Cloudy 51 10.6 42 5.6 71 71 ESE 12 19 29.95 1014 10 16 0.00 0.00
7:56 pm 19:56 Mostly Cloudy 48 8.9 42 5.6 80 80 E 9 15 29.95 1014 10 16 0.00 0.00
8:56 pm 20:56 Mostly Cloudy 46 7.8 42 5.6 86 86 E 10 17 29.95 1014 10 16 0.00 0.00
9:56 pm 21:56 Clear 44 6.7 41 5 89 89 SE 8 13 29.95 1014 10 16 0.00 0.00
10:56 pm 22:56 Clear 46 7.8 43 6.1 89 89 SSE 12 19 29.94 1014 10 16 0.00 0.00
11:56 pm 23:56 Clear 43 6.1 41 5 93 93 SE 8 13 29.92 1013 10 16 0.00 0.00

Powered by AerisWeather